Location: Goudie Road
(49.9333°N, 119.0750°W)
Time: 19:28:26
(UTC-07:00)

Daily predictions for brighter satellites

Satellite Brightness Start Highest point End
(mag) Time Altitude Azimuth Time Altitude Azimuth Time Altitude Azimuth
COSMO-SKYMED 1 3.9 19:44:59 10° N 19:49:10 47° WNW 19:53:20 10° SW
Cosmos 2150 Rocket 4.2 19:46:29 10° SSW 19:51:38 79° WNW 19:56:52 10° NNE
Envisat 4.0 19:48:04 10° ESE 19:52:23 29° ENE 19:56:42 10° N
Cosmos 1898 Rocket 4.1 19:47:18 10° SW 19:52:34 64° WNW 19:57:49 10° NNE
Cosmos 2297 4.4 19:48:32 10° SSE 19:53:30 32° ESE 19:58:30 10° NE
NOSS 2 (F) 4.5 19:52:02 10° NW 19:54:50 86° NE 19:58:00 10° SE
Cosmos 1408 Rocket 4.2 19:51:07 10° N 19:55:18 37° ENE 19:59:28 10° SE
Resurs 1-3 3.7 19:51:54 10° SSE 19:56:14 61° ENE 20:00:35 10° N
USA 267 3.9 19:52:15 10° ENE 19:58:30 49° N 20:04:45 10° WNW
Cosmos 1048 Rocket 4.0 19:54:24 10° NNW 19:59:32 68° ENE 20:04:38 10° SSE
Cosmos 1125 Rocket 4.0 19:56:22 10° S 20:01:08 38° ESE 20:05:57 10° NE
Cosmos 2082 Rocket 2.2 19:56:07 10° NNW 20:01:52 76° ENE 20:07:31 10° SE
FengYun 1-2 T 4.4 19:56:33 10° SSE 20:02:10 82° WSW 20:07:51 10° NNW
HJ-1C 3.9 20:01:12 10° S 20:04:34 66° WSW 20:08:00 10° NNW
Cosmos 1758 3.5 20:03:28 10° SSE 20:07:17 47° E 20:11:09 10° NNE
ERS-1 Rocket 4.2 20:03:35 10° ESE 20:07:30 23° ENE 20:11:26 10° N
SeaSat 1 3.1 20:03:04 10° SSE 20:07:55 59° WSW 20:12:49 10° NW
ALOS 3.0 20:07:07 10° S 20:11:44 58° W 20:16:22 10° NNW
Helios 1B rocket 3.3 20:09:11 10° NE 20:12:48 29° E 20:16:23 10° SSE
Timation 2 Rocket 4.0 20:07:03 10° NNW 20:13:29 79° ENE 20:19:36 10° SE
Cosmos 1953 2.5 20:10:26 10° S 20:14:22 52° E 20:18:20 10° NNE
Cosmos 1271 Rocket 3.8 20:11:03 10° SSE 20:14:26 26° E 20:17:49 10° NE
Okean 3 Rocket 3.9 20:11:40 10° NNW 20:16:04 70° W 20:20:26 10° S
Meteor 1-29 4.1 20:15:42 10° NE 20:18:35 23° E 20:21:26 10° SSE
Cosmos 1937 Rocket 4.5 20:13:50 10° SW 20:18:59 53° WNW 20:24:13 10° NNE
Cosmos 1447 Rocket 4.4 20:13:20 10° N 20:19:31 80° E 20:25:40 10° SSE
Cosmos 1076 Rocket 3.4 20:15:24 10° N 20:19:41 86° E 20:23:56 10° S
SAR-Lupe-4 3.5 20:17:06 10° SSE 20:20:38 65° ENE 20:24:13 10° N
Cosmos 1766 4.1 20:17:01 10° SSW 20:20:49 54° WNW 20:24:40 10° N
Cosmos 1674 2.7 20:17:27 10° N 20:21:13 62° ENE 20:24:59 10° SSE
Cosmos 1939 Rocket 3.6 20:20:09 11° SE 20:23:51 37° ENE 20:27:43 10° N
YAOGAN 6 4.1 20:22:03 15° ESE 20:23:52 21° ENE 20:26:43 10° NNE
Cosmos 1459 Rocket 4.4 20:18:27 10° SSE 20:24:12 41° E 20:29:54 10° NNE
Lacrosse 4 Rocket 3.3 20:21:08 10° WSW 20:24:47 31° NW 20:28:28 10° NNE
COSMOS 2487 2.7 20:22:44 10° NNW 20:26:19 71° WSW 20:29:52 10° SSE
CZ-4B DEB 2.9 20:25:29 12° SSE 20:28:15 48° ENE 20:31:17 10° N
Spot 1 4.3 20:23:35 10° SSE 20:28:19 78° ENE 20:33:22 10° NNW
Lacrosse 5 rocket 1.4 20:27:06 10° WNW 20:31:05 66° SW 20:33:58 16° SE
Cosmos 2173 Rocket 4.3 20:25:29 10° SSE 20:31:18 45° E 20:37:14 10° NNE
Cosmos 482 Debris 3.5 20:32:05 10° W 20:33:48 33° SSW 20:34:19 26° S
ISS -2.0 20:33:02 10° S 20:34:48 16° SSE 20:34:48 16° SSE
Helios 1A 2.9 20:31:25 10° SSE 20:35:35 88° E 20:39:49 10° NNW
Cosmos 2251 Rocket 3.8 20:32:54 10° NNW 20:38:05 50° ENE 20:41:55 18° SE
USA 186 1.4 20:36:24 10° S 20:38:36 56° WSW 20:40:48 10° NNW
SAR-Lupe-1 4.0 20:35:50 10° SSE 20:39:25 89° WSW 20:43:02 10° NNW
Cosmos 1766 Rocket 3.7 20:36:59 10° NNW 20:41:29 79° W 20:45:58 10° S
Meteor 1-4 Rocket 2.8 20:41:35 10° SSW 20:45:03 68° WNW 20:48:33 10° N
CZ-2D R/B 4.4 20:42:43 10° S 20:46:27 46° W 20:50:14 10° NNW
GP-B 3.1 20:42:43 10° S 20:47:10 88° E 20:51:39 10° N
Cosmos 1626 3.9 20:46:45 10° NNE 20:49:14 17° ENE 20:49:14 17° ENE
Cosmos 1805 4.3 20:47:16 10° SSW 20:51:03 48° WNW 20:54:52 10° N
Cosmos-2242 2.9 20:47:25 10° S 20:51:39 72° E 20:55:55 10° NNE
Cosmos 372 Rocket 3.8 20:48:16 10° SSW 20:53:23 76° ESE 20:58:35 10° NNE
Resurs 01 Rocket 3.4 20:51:05 10° SSW 20:55:03 32° W 20:59:05 10° NNW
Cosmos 2369 Rocket 3.9 21:00:18 14° ENE 21:00:18 14° ENE 21:01:34 10° ENE
Cosmos 389 Rocket 4.1 20:59:48 20° ENE 20:59:48 20° ENE 21:01:29 10° NE
Cosmos 1356 Rocket 3.4 20:57:32 10° N 21:01:38 60° ENE 21:03:29 30° SE
Cosmos 2016 Rocket 4.0 20:57:12 10° SSE 21:03:13 56° E 21:09:13 10° NNE
USA 215 3.8 20:59:48 10° ENE 21:05:38 33° SE 21:11:24 10° SSW
Cosmos 1833 Rocket 3.8 21:02:08 10° NW 21:07:24 42° WSW 21:12:39 10° S
MetOp-B 4.5 21:05:13 28° ESE 21:07:41 47° ENE 21:12:48 10° N
Lacrosse 5 2.3 21:02:40 10° WSW 21:07:43 62° NNW 21:12:45 10° NE
Cosmos 1470 2.8 21:04:11 10° SSW 21:08:10 80° W 21:12:10 10° N
Cosmos 2221 4.0 21:10:26 21° ENE 21:10:26 21° ENE 21:12:49 10° NE
Cosmos 1733 3.3 21:07:18 10° SSW 21:11:09 77° W 21:15:04 10° N
Cosmos 1725 Rocket 4.2 21:08:00 19° SSE 21:12:15 46° E 21:18:08 10° NNE
Cosmos 1743 Rocket 3.7 21:08:20 10° NNW 21:12:47 78° W 21:16:07 18° S
Cosmos 1500 Rocket 3.4 21:09:47 10° N 21:14:09 82° E 21:16:19 29° SSE
SPOT 5 3.5 21:12:49 32° ESE 21:14:50 46° ENE 21:19:52 10° N
Cosmos 1340 Rocket 3.7 21:11:13 10° NNW 21:15:08 49° W 21:18:37 12° S
Cosmos 494 Rocket 3.9 21:10:13 10° NNW 21:15:22 87° WSW 21:18:14 27° SSE
BREEZE-M DEB 3.9 21:13:00 10° W 21:16:48 88° SSW 21:16:58 79° ESE
H-2A R/B 3.7 21:17:29 19° NE 21:17:29 19° NE 21:20:09 10° NNE
Cosmos 1805 Rocket 4.4 21:13:42 10° N 21:17:40 31° ENE 21:17:51 31° ENE
NOAA 11 4.4 21:16:05 32° SE 21:18:28 55° ENE 21:23:50 10° N
Coronas F rocket 3.9 21:16:27 10° N 21:16:30 10° N 21:16:30 10° N
CZ-3B DEB 2.4 21:10:12 10° WSW 21:18:39 66° NNW 21:21:29 20° ENE
Cosmos 1867 3.7 21:13:29 10° SW 21:18:57 79° NW 21:24:27 10° NE
Cosmos 2278 Rocket 3.7 21:15:08 10° WSW 21:20:23 37° NW 21:25:40 10° NNE
Cosmos 1184 Rocket 3.2 21:17:09 10° NNW 21:20:31 61° W 21:21:44 35° SSW
Cosmos 2100 Rocket 4.1 21:14:32 10° SSW 21:20:53 79° W 21:27:19 10° N
BREEZE-M DEB (TANK) 4.0 21:18:11 10° WSW 21:21:54 69° SSE 21:35:17 10° ENE
SL-08 R/B 4.5 21:18:53 10° S 21:25:12 69° E 21:31:36 10° NNE
ATLAS 5 CENTAUR R/B 1.7 21:21:33 10° SW 21:26:19 81° SE 21:31:38 10° NE
Terra 3.4 21:26:48 20° ENE 21:26:56 20° ENE 21:30:24 10° NNE
Tsikada Rocket 3.9 21:21:02 10° N 21:27:15 72° ENE 21:30:36 29° SSE
Envisat 3.9 21:26:19 10° S 21:31:11 47° W 21:36:08 10° NNW
Cosmos 2058 2.8 21:29:11 10° N 21:33:22 77° ENE 21:34:00 62° SE
SL-08 RB Rocket 4.0 21:37:06 47° E 21:37:30 48° ENE 21:42:00 10° N
Geosat 4.5 21:34:17 10° NNE 21:39:15 61° NW 21:44:12 10° SW
SL-14 R/B 3.9 21:36:21 10° NNW 21:40:08 53° W 21:41:23 36° SSW
USA 267 3.3 21:38:11 35° ESE 21:41:08 75° NNE 21:47:41 10° WNW
H-2A R/B 2.5 21:42:52 43° E 21:43:32 45° ENE 21:48:33 10° N
Cosmos 1802 Rocket 4.2 21:37:27 10° SSW 21:43:34 68° WNW 21:49:46 10° N
Cosmos 2151 3.2 21:40:30 10° NNW 21:44:45 66° W 21:45:51 46° SSW
Cosmos 2082 Rocket 4.4 21:41:13 10° NW 21:45:19 21° W 21:49:23 10° SSW
ERS-1 Rocket 3.4 21:43:18 28° S 21:45:54 61° WSW 21:50:56 10° NNW
Helios 1B rocket 4.2 21:44:25 10° N 21:48:07 32° WNW 21:51:48 10° SW
Cosmos 1842 Rocket 4.0 21:48:45 22° SSW 21:51:32 62° WNW 21:55:54 10° N
MetOp-A 4.2 21:51:40 41° S 21:53:34 77° WSW 21:58:58 10° NNW
ARGOS 3.0 21:55:40 56° SSE 21:56:51 85° ENE 22:02:15 10° NNW
YAOGAN 6 3.9 21:56:30 34° SW 21:57:13 38° W 22:00:44 10° NNW
MOS 1-B Rocket 4.4 21:55:19 41° SE 21:58:08 70° ENE 22:04:50 10° NNW
Cosmos 1816 Rocket 4.5 21:52:18 10° N 21:58:31 83° W 22:01:00 39° S
USA 245 4.4 22:02:11 49° S 22:03:54 84° WSW 22:10:19 10° NNW
Lacrosse 5 rocket 3.8 22:08:16 10° WSW 22:09:31 11° WSW 22:09:41 11° SW
Cosmos 1703 3.9 22:07:33 10° NNW 22:10:56 54° WNW 22:10:56 54° WNW
Cosmos 2233 Rocket 3.8 22:15:53 57° S 22:17:17 85° E 22:23:28 10° N
Meteor 2-1 Rocket 4.2 22:15:53 45° SSW 22:17:44 79° WNW 22:23:24 10° N
Cosmos 1626 3.6 22:21:16 10° NNW 22:23:56 36° NW 22:23:56 36° NW
Sich 1 3.7 22:20:46 10° N 22:24:13 54° N 22:24:13 54° N
Cosmos 2297 Rocket 4.2 22:22:17 10° N 22:25:57 17° NNE 22:27:19 16° NE
BREEZE-M DEB (TANK) 4.4 22:21:30 10° WSW 22:26:48 65° SSE 22:50:15 10° E
SPOT 1/Viking Rocket 3.6 22:27:13 67° WSW 22:27:28 69° WSW 22:32:42 10° NNW
Cosmos 1666 Rocket 4.3 22:24:16 10° NNW 22:27:33 50° NNW 22:27:33 50° NNW
Cosmos 1633 Rocket 3.9 22:27:02 10° N 22:30:18 48° N 22:30:18 48° N
Cosmos 407 Rocket 4.1 22:29:43 10° NNW 22:34:11 49° NNE 22:34:11 49° NNE
Cosmos 1833 4.2 22:34:02 10° NNW 22:39:23 80° NW 22:39:23 80° NW
Cosmos 2369 Rocket 2.3 22:41:59 68° NNE 22:41:59 68° NNE 22:46:54 10° NNE
CZ-4C R/B 3.7 22:47:49 26° NE 22:47:49 26° NE 22:50:31 10° NE
Cosmos 2221 3.8 22:47:15 40° NW 22:47:15 40° NW 22:50:54 10° N
USA 215 3.1 22:42:34 10° ENE 22:49:10 89° SSE 22:55:43 10° WSW
Lacrosse 5 3.1 22:46:40 10° WNW 22:51:24 37° N 22:52:13 35° NNE
Cosmos 2227 Rocket 3.7 22:47:55 10° NNW 22:52:40 26° NE 22:52:41 26° NE
H-2A R/B 3.6 22:54:36 32° NW 22:54:36 32° NW 22:57:00 10° NNW
SPOT 5 4.4 22:52:03 30° WSW 22:53:00 32° W 22:57:44 10° NNW
Terra 2.9 23:05:41 43° NW 23:05:41 43° NW 23:09:00 10° NNW
Cosmos 1464 Rocket 4.1 23:05:23 71° NNE 23:05:23 71° NNE 23:10:56 10° N
Cosmos 1943 Rocket 3.4 23:11:22 33° NNE 23:11:22 33° NNE 23:14:26 10° NNE
ATLAS 5 CENTAUR R/B 3.7 23:07:12 10° W 23:11:37 30° NNW 23:16:27 10° NE
Cosmos 2034 Rocket 4.3 23:22:54 61° NNE 23:22:54 61° NNE 23:27:58 10° N
H-2A R/B 3.5 23:23:30 31° W 23:23:30 31° W 23:27:48 10° NNW
USA 267 3.9 23:25:31 43° WSW 23:25:31 43° WSW 23:30:42 10° WNW
CZ-3B DEB 3.9 23:26:11 10° WNW 23:28:14 19° WNW 23:28:14 19° WNW
Cosmos 2219 4.0 23:27:09 10° NNW 23:31:07 47° NW 23:31:07 47° NW
